Flag for Italy Weather past 2 weeks in Trieste, Italy

Now
73 °F

Overcast.


Feels Like: 73 °F
Forecast: 71 / 83 °F
Wind: 1 mph from North

Location: Trieste

Current Time: Jul 22, 2014 at 8:27:24 PM

Latest Report: Jul 22, 2014 at 6:00 PM


Visibility: 6 mi

Pressure: 29.77 "Hg

Humidity: 83%

Dew point: 68 °F

Location of TriesteLocation

Historic Weather in Trieste — Graph

°F

Trieste temperature yesterday

Maximum temperature yesterday: 79 °F (at 3:00 PM)
Minimum temperature yesterday: 66 °F (at 4:00 PM)
Average temperature yesterday: 74 °F

Past Weeks' High & Low Weather Summary

 TemperatureHumidityPressure
High88 °F (Jul 17, 12:00 PM)96% (Jul 8, 4:00 AM)30.06 "Hg (Jul 8, 4:00 AM)
Low60 °F (Jul 10, 1:00 AM)38% (Jul 15, 3:00 PM)29.62 "Hg (Jul 10, 6:00 AM)
Average74 °F69%29.88 "Hg
* Reported Jul 7 7:00 PM — Jul 22 6:00 PM, Trieste, Weather by CustomWeather, © 2014

Note: Actual official high and low records may vary slightly from our data, if they occured in-between our weather recording intervals... More about our weather records

Advertising

Trieste weather history for previous 24 hours

 ConditionsComfort  
Time TempWeatherWind HumidityBarometerVisibility
6:00 PM
Jul 22
73 °FOvercast.1 mph83%29.77 "Hg6 mi
5:00 PM73 °FDrizzle. Overcast.1 mph79%29.77 "Hg6 mi
4:00 PM74 °FDrizzle. Overcast.1 mph76%29.78 "Hg6 mi
3:00 PM75 °FDrizzle. Overcast.1 mph67%29.78 "Hg12 mi
2:00 PM77 °FDrizzle. Overcast.2 mph60%29.78 "Hg12 mi
1:00 PM75 °FOvercast.1 mph63%29.78 "Hg12 mi
12:00 PM75 °FOvercast.1 mph57%29.77 "Hg12 mi
11:00 AM76 °FPartly sunny.1 mph55%29.77 "Hg12 mi
10:00 AM74 °FScattered clouds.3 mph62%29.76 "Hg12 mi
9:00 AM71 °FScattered clouds.1 mph68%29.77 "Hg12 mi
8:00 AM67 °FScattered clouds.3 mph79%29.76 "Hg12 mi
7:00 AM63 °FPassing clouds.5 mph84%29.76 "Hg12 mi
6:00 AM63 °FSunny.5 mph84%29.75 "Hg12 mi
5:00 AM63 °FClear.3 mph85%29.75 "Hg12 mi
4:00 AM65 °FClear.6 mph75%29.75 "Hg12 mi
3:00 AM64 °FClear.5 mph84%29.77 "Hg12 mi
2:00 AM64 °FPassing clouds.2 mph80%29.78 "Hg12 mi
1:00 AM65 °FPassing clouds.2 mph82%29.78 "Hg12 mi
12:00 AM66 °FPassing clouds.5 mph80%29.79 "Hg12 mi
11:00 PM
Jul 21
68 °FPassing clouds.9 mph80%29.80 "Hg12 mi
10:00 PM67 °FPassing clouds.7 mph87%29.83 "Hg12 mi
9:00 PM68 °FPassing clouds.3 mph85%29.80 "Hg12 mi
8:00 PM71 °FOvercast.1 mph82%29.80 "Hg12 mi
Weather by CustomWeather, © 2014

See weather overviewHow to use our weather pages